2009 SU186

Japanese version
Home page
Updated on August 12, 2011

---------------------------------------------------------------------

* Profile

* Orbital Elements

The following orbital elements are taken from MPO190702

Epoch 2009 Sept. 6.0 TT = JDT 2455080.5                 MPC
M  24.96336              (2000.0)            P               Q
n   0.04854431     Peri.  264.36271     +0.74059555     +0.66186173
a   7.4423565      Node    54.13259     -0.54582227     +0.69324079
e   0.4748713      Incl.    8.23019     -0.39191361     +0.28523019
P  20.3            H   14.2           G   0.15
From 9 observations 2009 Sept. 17-27.

* Magnitudes Graph

        H = 14.2  G = 0.15

---------------------------------------------------------------------

The orbital elements are published at the MPC Ephemerides and Orbital Elements.
The magnitudes graphs are made with Comet for Windows.

---------------------------------------------------------------------

Copyright(C) Seiichi Yoshida (comet@aerith.net). All rights reserved.